Waarnemingen

Advertentie
Mijn weer
Barcelona/Aeropuerto, Spanje (8181): temperatuur & dauwpunt: 15.08.2018 06:00:00 - 21.08.2018 06:00:00 (CEST)Barcelona/Aeropuerto, Spanje (8181): windsnelheid: 15.08.2018 06:00:00 - 21.08.2018 06:00:00 (CEST)Barcelona/Aeropuerto, Spanje (8181): windrichting: 15.08.2018 06:00:00 - 21.08.2018 06:00:00 (CEST)Barcelona/Aeropuerto, Spanje (8181): luchtdruk: 15.08.2018 06:00:00 - 21.08.2018 06:00:00 (CEST)Barcelona/Aeropuerto, Spanje (8181): zicht: 15.08.2018 06:00:00 - 21.08.2018 06:00:00 (CEST)
Datum & Tijd tt [°C] td [°C] ff [km/u] ff [kn] dd ppp [hPa] vv [km]
21.08.2018 06:00:00 24,2 17,6 9 5 N 1016,1 30
21.08.2018 05:00:00 24,1 18,1 9 5 N 1016,1 25
21.08.2018 04:00:00 24,6 18,8 9 5 N 1016,4 20
21.08.2018 03:00:00 24,8 19,2 11 6 N 1016,6 24
21.08.2018 02:00:00 24,7 19,3 8 4 NNW 1016,8 27
21.08.2018 01:00:00 25,1 19,5 8 4 NNW 1017,1 30
21.08.2018 00:00:00 25,8 19,7 5 3 WNW 1017,3 30
20.08.2018 23:00:00 26,7 21,2 5 3 WZW 1017,4 35
20.08.2018 22:00:00 27,7 20,3 5 3 Z 1017,1 30
20.08.2018 21:00:00 27,8 19,9 9 5 ZZO 1016,8 30
20.08.2018 20:00:00 28,5 19,8 11 6 OZO 1016,4 35
20.08.2018 19:00:00 29,1 20,5 9 5 ZO 1016,0 30
20.08.2018 18:00:00 30,1 20,8 15 8 ZZW 1016,0 29
20.08.2018 17:00:00 30,4 19,4 26 14 ZW 1016,1 35
20.08.2018 16:00:00 30,8 20,3 18 10 ZZW 1016,5 24
20.08.2018 15:00:00 30,2 19,7 22 12 ZZW 1016,9 30
20.08.2018 14:00:00 30,5 19,1 16 9 ZW 1017,2 35
20.08.2018 13:00:00 30,7 16,4 13 7 ZZW 1017,7 28
20.08.2018 12:00:00 30,8 16,5 11 6 ZZW 1018,0 30
20.08.2018 11:00:00 29,8 15,5 13 7 N 1018,2 40
20.08.2018 10:00:00 26,9 15,9 18 10 N 1018,2 30
20.08.2018 09:00:00 24,5 16,0 21 11 N 1018,1 30
20.08.2018 08:00:00 23,0 15,8 18 10 N 1017,9 30
20.08.2018 07:00:00 22,6 15,7 16 9 N 1017,6 30
20.08.2018 06:00:00 23,2 15,8 18 10 N 1017,5 30
20.08.2018 05:00:00 23,7 15,7 18 10 N 1017,7 30
20.08.2018 04:00:00 23,9 15,9 16 9 N 1018,0 30
20.08.2018 03:00:00 23,9 16,2 15 8 N 1018,3 30
20.08.2018 02:00:00 24,8 15,7 11 6 N 1018,6 30
20.08.2018 01:00:00 25,2 15,8 8 4 N 1019,0 30
20.08.2018 00:00:00 25,7 16,0 8 4 N 1019,1 30
19.08.2018 23:00:00 25,6 17,3 9 5 W 1019,0 30
19.08.2018 22:00:00 26,4 18,5 11 6 WZW 1018,9 30
19.08.2018 21:00:00 27,1 18,9 13 7 WZW 1018,7 30
19.08.2018 20:00:00 28,5 18,3 15 8 WZW 1018,6 40
19.08.2018 19:00:00 29,4 17,3 18 10 WZW 1018,5 30
19.08.2018 18:00:00 30,1 16,8 22 12 ZW 1018,6 30
19.08.2018 17:00:00 30,5 18,0 22 12 ZW 1018,7 30
19.08.2018 16:00:00 29,8 18,8 26 14 ZW 1019,0 25
19.08.2018 15:00:00 30,0 18,6 21 11 ZZW 1019,2 30
19.08.2018 14:00:00 30,1 15,9 18 10 ZW 1019,4 40
19.08.2018 13:00:00 29,6 17,0 16 9 ZW 1019,6 30
19.08.2018 12:00:00 29,8 16,6 15 8 ZZW 1019,9 24
19.08.2018 11:00:00 28,9 16,1 9 5 N 1020,0 35
19.08.2018 10:00:00 26,2 16,5 15 8 N 1020,1 30
19.08.2018 09:00:00 24,2 16,3 16 9 N 1020,0 30
19.08.2018 08:00:00 22,3 16,1 16 9 N 1019,8 35
19.08.2018 07:00:00 21,7 16,2 13 7 N 1019,6 30
19.08.2018 06:00:00 21,9 16,2 15 8 N 1019,5 30
19.08.2018 05:00:00 22,0 16,3 13 7 N 1019,6 35
19.08.2018 04:00:00 22,3 16,1 13 7 N 1019,6 30
19.08.2018 03:00:00 22,3 16,3 15 8 N 1019,6 30
19.08.2018 02:00:00 22,7 16,3 11 6 N 1019,8 40
19.08.2018 01:00:00 22,7 15,8 8 4 WNW 1019,9 30
19.08.2018 00:00:00 23,8 16,3 8 4 NNW 1020,1 30
18.08.2018 23:00:00 24,7 15,6 4 2 NNW 1020,1 35
18.08.2018 22:00:00 24,3 16,8 9 5 W 1019,8 30
18.08.2018 21:00:00 25,2 17,1 11 6 WZW 1019,1 30
18.08.2018 20:00:00 25,6 17,7 13 7 WZW 1018,7 30
18.08.2018 19:00:00 26,9 17,2 16 9 ZW 1018,5 30
18.08.2018 18:00:00 27,6 16,8 15 8 ZW 1018,4 30
18.08.2018 17:00:00 27,7 17,0 15 8 ZW 1018,9 30
18.08.2018 16:00:00 26,6 16,8 15 8 ZZW 1019,0 30
18.08.2018 15:00:00 27,4 16,3 16 9 ZZW 1019,1 30
18.08.2018 14:00:00 27,1 15,8 15 8 Z 1019,3 30
18.08.2018 13:00:00 28,6 14,9 4 2 N 1019,6 30
18.08.2018 12:00:00 26,8 14,1 15 8 N 1019,8 30
18.08.2018 11:00:00 24,6 14,4 21 11 N 1019,9 30
18.08.2018 10:00:00 22,9 14,5 22 12 N 1019,7 30
18.08.2018 09:00:00 21,3 15,4 18 10 N 1019,4 30
18.08.2018 08:00:00 19,7 15,3 18 10 N 1019,0 45
18.08.2018 07:00:00 19,2 15,5 15 8 N 1018,7 30
18.08.2018 06:00:00 19,2 15,9 18 10 N 1018,3 30
18.08.2018 05:00:00 19,7 16,0 18 10 N 1018,3 40
18.08.2018 04:00:00 20,0 16,1 15 8 N 1018,3 30
18.08.2018 03:00:00 20,7 16,7 18 10 N 1018,5 30
18.08.2018 02:00:00 21,1 16,5 18 10 N 1018,8 35
18.08.2018 01:00:00 21,0 16,8 13 7 N 1018,9 30
18.08.2018 00:00:00 21,3 17,0 16 9 N 1018,6 30
17.08.2018 23:00:00 21,1 17,7 16 9 N 1018,4 40
17.08.2018 22:00:00 21,5 17,8 11 6 N 1018,1 30
17.08.2018 21:00:00 21,8 17,8 9 5 NNW 1016,6 30
17.08.2018 20:00:00 23,5 16,5 11 6 NNW 1017,2 20
17.08.2018 19:00:00 23,1 18,2 22 12 N 1017,1 30
17.08.2018 18:00:00 23,0 18,7 18 10 N 1017,0 30
17.08.2018 17:00:00 23,8 17,2 15 8 NO 1017,4 20
17.08.2018 16:00:00 21,7 18,5 22 12 ONO 1017,3 26
17.08.2018 15:00:00 21,1 18,4 28 15 NNO 1018,2 30
17.08.2018 14:00:00 27,8 20,7 13 7 OZO 1017,2 25
17.08.2018 13:00:00 29,4 21,1 13 7 ZO 1016,7 27
17.08.2018 12:00:00 29,3 20,5 11 6 ZZO 1016,8 30
17.08.2018 11:00:00 28,9 19,3 5 3 NO 1016,9 25
17.08.2018 10:00:00 27,3 18,7 8 4 O 1016,2 29
17.08.2018 09:00:00 25,7 17,9 11 6 N 1015,7 27
17.08.2018 08:00:00 24,0 17,5 15 8 N 1015,4 30
17.08.2018 07:00:00 23,5 17,7 15 8 N 1015,2 30
17.08.2018 06:00:00 24,1 18,3 2 1 WNW 1014,9 30
17.08.2018 05:00:00 23,9 17,5 9 5 N 1014,9 30
17.08.2018 04:00:00 24,8 17,3 15 8 N 1015,0 30
17.08.2018 03:00:00 24,7 17,7 5 3 N 1015,4 30
17.08.2018 02:00:00 25,4 19,2 13 7 N 1015,9 30
17.08.2018 01:00:00 25,7 21,4 5 3 WNW 1015,8 18
17.08.2018 00:00:00 25,8 20,1 5 3 NW 1015,6 30
16.08.2018 23:00:00 26,4 21,4 8 4 WZW 1015,2 30
16.08.2018 22:00:00 26,5 21,3 9 5 WZW 1015,1 30
16.08.2018 21:00:00 27,3 21,8 11 6 ZW 1014,4 28
16.08.2018 20:00:00 27,9 21,0 13 7 WZW 1014,0 27
16.08.2018 19:00:00 28,9 21,4 18 10 ZW 1013,7 30
16.08.2018 18:00:00 29,4 21,3 24 13 ZW 1014,3 30
16.08.2018 17:00:00 29,4 20,6 29 16 ZW 1014,6 29
16.08.2018 16:00:00 29,7 21,2 26 14 ZW 1014,7 30
16.08.2018 15:00:00 29,7 22,0 22 12 ZZW 1015,2 29
16.08.2018 14:00:00 29,8 22,0 21 11 ZZW 1015,3 30
16.08.2018 13:00:00 29,3 21,3 18 10 ZW 1015,4 30
16.08.2018 12:00:00 28,8 21,7 18 10 ZZW 1016,2 30
16.08.2018 11:00:00 28,5 20,8 11 6 ZW 1016,4 30
16.08.2018 10:00:00 28,5 19,7 4 2 WZW 1016,1 27
16.08.2018 09:00:00 26,2 19,8 8 4 N 1016,0 24
16.08.2018 08:00:00 24,5 19,3 13 7 N 1015,8 20
16.08.2018 07:00:00 23,7 19,4 13 7 N 1015,8 21
16.08.2018 06:00:00 24,5 19,6 8 4 N 1015,8 30
16.08.2018 05:00:00 24,0 19,7 11 6 N 1015,8 25
16.08.2018 04:00:00 24,2 19,9 15 8 N 1016,1 30
16.08.2018 03:00:00 24,7 20,0 11 6 NW 1016,5 30
16.08.2018 02:00:00 25,3 20,1 5 3 N 1017,0 30
16.08.2018 01:00:00 25,6 20,2 8 4 NNW 1017,3 30
16.08.2018 00:00:00 26,1 20,9 5 3 WZW 1017,5 30
15.08.2018 23:00:00 26,7 20,8 11 6 ZZW 1017,4 30
15.08.2018 22:00:00 26,8 20,3 9 5 Z 1017,4 30
15.08.2018 21:00:00 27,1 20,0 9 5 ZZW 1016,8 30
15.08.2018 20:00:00 27,6 20,1 15 8 ZZW 1016,6 30
15.08.2018 19:00:00 28,5 19,7 21 11 ZW 1016,6 28
15.08.2018 18:00:00 28,8 19,5 22 12 ZW 1016,7 24
15.08.2018 17:00:00 28,9 19,0 22 12 ZW 1016,9 30
15.08.2018 16:00:00 29,4 18,9 18 10 ZZW 1017,3 25
15.08.2018 15:00:00 28,9 19,2 22 12 Z 1017,8 30
15.08.2018 14:00:00 28,5 20,2 15 8 Z 1018,1 35
15.08.2018 13:00:00 27,7 19,0 15 8 ZZO 1018,3 30
15.08.2018 12:00:00 27,6 18,6 15 8 ZO 1018,4 30
15.08.2018 11:00:00 28,4 15,9 8 4 NO 1018,5 40
15.08.2018 10:00:00 25,4 13,8 22 12 N 1018,4 30
15.08.2018 09:00:00 24,1 14,5 18 10 N 1018,4 30
15.08.2018 08:00:00 24,0 16,8 15 8 NNW 1018,1 40
15.08.2018 07:00:00 23,7 19,4 15 8 N 1017,8 29
15.08.2018 06:00:00 24,1 19,3 9 5 NNO 1017,7 27

tt = temperatuur
td = dauwpunt
ff = windsnelheid
dd = windrichting
ppp = luchtdruk
vv = zicht

Weerstations in de omgeving